• In Kazakhstan
  • List of Countries
  • For 7 days
  • Water Temperature
  • Weather Map
  • News
  • Weather Widgets
  • user-avatar
    Login

    Hourly Weather Veszprem

    Today, 7 June, Sunday

    Time Temperature Precipitation Wind Pressure Humidity
    00:00 +16°C° 0 mm 1 mps 733 mmHg 86%
    01:00 +16°C° 0 mm 1 mps 733 mmHg 89%
    02:00 +16°C° 0.2 mm 1 mps 733 mmHg 89%
    03:00 +16°C° 0.2 mm 1 mps 733 mmHg 90%
    04:00 +16°C° 0.2 mm 1 mps 732 mmHg 90%
    05:00 +18°C° 0.1 mm 1 mps 733 mmHg 86%
    06:00 +19°C° 0.1 mm 1 mps 733 mmHg 83%
    07:00 +19°C° 0.1 mm 2 mps 733 mmHg 79%
    08:00 +21°C° 0.1 mm 2 mps 733 mmHg 75%
    09:00 +23°C° 0.1 mm 2 mps 733 mmHg 70%
    10:00 +25°C° 0.1 mm 3 mps 733 mmHg 66%
    11:00 +25°C° 1.5 mm 3 mps 733 mmHg 65%
    12:00 +26°C° 1.5 mm 3 mps 732 mmHg 65%
    13:00 +26°C° 1.5 mm 3 mps 732 mmHg 64%
    14:00 +26°C° 0.7 mm 3 mps 732 mmHg 63%
    15:00 +26°C° 0.7 mm 4 mps 732 mmHg 63%
    16:00 +26°C° 0.7 mm 4 mps 731 mmHg 62%
    17:00 +25°C° 0 mm 3 mps 731 mmHg 66%
    18:00 +24°C° 0 mm 3 mps 731 mmHg 70%
    19:00 +22°C° 0 mm 3 mps 731 mmHg 75%
    20:00 +20°C° 0 mm 3 mps 731 mmHg 78%
    21:00 +19°C° 0 mm 3 mps 732 mmHg 81%
    22:00 +18°C° 0 mm 2 mps 732 mmHg 84%
    23:00 +16°C° 0.1 mm 3 mps 733 mmHg 84%

    Tomorrow, 8 June, Monday

    Time Temperature Precipitation Wind Pressure Humidity
    00:00 +14°C° 0.1 mm 4 mps 733 mmHg 84%
    01:00 +12°C° 0.1 mm 5 mps 733 mmHg 84%
    02:00 +12°C° 0 mm 5 mps 733 mmHg 84%
    03:00 +12°C° 0 mm 5 mps 733 mmHg 85%
    04:00 +10°C° 0 mm 5 mps 733 mmHg 86%
    05:00 +12°C° 0 mm 5 mps 734 mmHg 84%
    06:00 +13°C° 0 mm 5 mps 734 mmHg 82%
    07:00 +13°C° 0 mm 6 mps 735 mmHg 80%
    08:00 +15°C° 0 mm 5 mps 735 mmHg 77%
    09:00 +16°C° 0 mm 5 mps 735 mmHg 74%
    10:00 +18°C° 0 mm 4 mps 736 mmHg 71%
    11:00 +19°C° 0 mm 5 mps 736 mmHg 70%
    12:00 +20°C° 0 mm 5 mps 735 mmHg 69%
    13:00 +20°C° 0 mm 5 mps 735 mmHg 68%
    14:00 +20°C° 0 mm 4 mps 735 mmHg 68%
    15:00 +20°C° 0 mm 4 mps 735 mmHg 69%
    16:00 +20°C° 0 mm 4 mps 735 mmHg 69%
    17:00 +19°C° 0 mm 4 mps 735 mmHg 74%
    18:00 +18°C° 0 mm 3 mps 735 mmHg 78%
    19:00 +17°C° 0 mm 2 mps 735 mmHg 82%
    20:00 +16°C° 0 mm 3 mps 735 mmHg 85%
    21:00 +14°C° 0 mm 3 mps 735 mmHg 88%
    22:00 +14°C° 0 mm 3 mps 735 mmHg 90%
    23:00 +13°C° 0 mm 3 mps 735 mmHg 90%

    Day after tomorrow, 9 June, Tuesday

    Time Temperature Precipitation Wind Pressure Humidity
    00:00 +14°C° 0 mm 2 mps 735 mmHg 90%
    01:00 +13°C° 0 mm 2 mps 735 mmHg 89%
    02:00 +13°C° 0 mm 2 mps 735 mmHg 91%
    03:00 +12°C° 0 mm 2 mps 735 mmHg 92%
    04:00 +12°C° 0 mm 2 mps 735 mmHg 94%
    05:00 +13°C° 0 mm 2 mps 735 mmHg 89%
    06:00 +14°C° 0 mm 2 mps 736 mmHg 85%
    07:00 +16°C° 0 mm 2 mps 736 mmHg 80%
    08:00 +17°C° 0 mm 2 mps 736 mmHg 75%
    09:00 +19°C° 0 mm 2 mps 736 mmHg 70%
    10:00 +22°C° 0 mm 1 mps 736 mmHg 65%
    11:00 +22°C° 0 mm 1 mps 736 mmHg 64%
    12:00 +23°C° 0 mm 2 mps 736 mmHg 62%
    13:00 +24°C° 0 mm 2 mps 736 mmHg 60%
    14:00 +24°C° 0.1 mm 2 mps 736 mmHg 61%
    15:00 +24°C° 0.1 mm 1 mps 735 mmHg 62%
    16:00 +24°C° 0.1 mm 1 mps 735 mmHg 62%
    17:00 +23°C° 0.3 mm 1 mps 735 mmHg 68%
    18:00 +22°C° 0.3 mm 1 mps 735 mmHg 74%
    19:00 +21°C° 0.3 mm 1 mps 735 mmHg 80%
    20:00 +20°C° 0.4 mm 1 mps 735 mmHg 83%
    21:00 +19°C° 0.4 mm 1 mps 735 mmHg 86%
    22:00 +18°C° 0.4 mm 1 mps 736 mmHg 90%
    23:00 +16°C° 0.9 mm 1 mps 736 mmHg 91%

    10 June, Wednesday

    Time Temperature Precipitation Wind Pressure Humidity
    00:00 +16°C° 0.9 mm 1 mps 736 mmHg 93%
    01:00 +16°C° 0.9 mm 2 mps 736 mmHg 95%
    02:00 +16°C° 0.5 mm 2 mps 735 mmHg 95%
    03:00 +16°C° 0.5 mm 1 mps 735 mmHg 96%
    04:00 +16°C° 0.5 mm 1 mps 735 mmHg 96%
    05:00 +16°C° 1 mm 1 mps 735 mmHg 96%
    06:00 +16°C° 1 mm 1 mps 736 mmHg 96%
    07:00 +16°C° 1 mm 1 mps 736 mmHg 95%
    08:00 +18°C° 0.6 mm 1 mps 736 mmHg 92%
    09:00 +19°C° 0.6 mm 1 mps 736 mmHg 88%
    10:00 +20°C° 0.6 mm 1 mps 736 mmHg 84%
    11:00 +19°C° 0.4 mm 2 mps 735 mmHg 82%
    12:00 +20°C° 0.4 mm 2 mps 735 mmHg 80%
    13:00 +20°C° 0.4 mm 2 mps 735 mmHg 78%
    14:00 +21°C° 0.4 mm 2 mps 735 mmHg 77%
    15:00 +21°C° 0.4 mm 2 mps 734 mmHg 75%
    16:00 +21°C° 0.4 mm 2 mps 734 mmHg 74%
    17:00 +20°C° 0.3 mm 2 mps 734 mmHg 78%
    18:00 +19°C° 0.3 mm 2 mps 734 mmHg 82%
    19:00 +18°C° 0.3 mm 2 mps 734 mmHg 87%
    20:00 +18°C° 0.1 mm 2 mps 734 mmHg 89%
    21:00 +17°C° 0.1 mm 2 mps 734 mmHg 90%
    22:00 +16°C° 0.1 mm 1 mps 734 mmHg 92%
    23:00 +15°C° 0 mm 1 mps 734 mmHg 93%

    11 June, Thursday

    Time Temperature Precipitation Wind Pressure Humidity
    00:00 +15°C° 0 mm 1 mps 734 mmHg 94%
    01:00 +15°C° 0 mm 1 mps 734 mmHg 95%
    02:00 +15°C° 0 mm 1 mps 734 mmHg 95%
    03:00 +15°C° 0 mm 1 mps 734 mmHg 96%
    04:00 +15°C° 0 mm 1 mps 733 mmHg 96%
    05:00 +15°C° 0 mm 1 mps 734 mmHg 94%
    06:00 +16°C° 0 mm 1 mps 734 mmHg 92%
    07:00 +18°C° 0 mm 1 mps 734 mmHg 89%
    08:00 +19°C° 0 mm 1 mps 734 mmHg 84%
    09:00 +20°C° 0 mm 1 mps 734 mmHg 80%
    10:00 +22°C° 0 mm 1 mps 734 mmHg 75%
    11:00 +22°C° 0.2 mm 1 mps 734 mmHg 71%
    12:00 +23°C° 0.2 mm 1 mps 733 mmHg 68%
    13:00 +24°C° 0.2 mm 2 mps 733 mmHg 65%
    14:00 +24°C° 0.7 mm 2 mps 733 mmHg 66%
    15:00 +24°C° 0.7 mm 2 mps 732 mmHg 67%
    16:00 +24°C° 0.7 mm 2 mps 732 mmHg 68%
    17:00 +23°C° 0.4 mm 2 mps 732 mmHg 73%
    18:00 +22°C° 0.4 mm 1 mps 732 mmHg 78%
    19:00 +21°C° 0.4 mm 1 mps 732 mmHg 83%
    20:00 +20°C° 0.1 mm 1 mps 732 mmHg 85%
    21:00 +19°C° 0.1 mm 1 mps 732 mmHg 86%
    22:00 +18°C° 0.1 mm 1 mps 733 mmHg 88%
    23:00 +18°C° 0 mm 1 mps 732 mmHg 89%

    12 June, Friday

    Time Temperature Precipitation Wind Pressure Humidity
    00:00 +16°C° 0 mm 1 mps 732 mmHg 90%
    01:00 +16°C° 0 mm 1 mps 732 mmHg 91%
    02:00 +16°C° 0 mm 1 mps 732 mmHg 91%
    03:00 +15°C° 0 mm 1 mps 732 mmHg 91%
    04:00 +15°C° 0 mm 1 mps 732 mmHg 91%
    05:00 +16°C° 0 mm 1 mps 732 mmHg 89%
    06:00 +19°C° 0 mm 1 mps 732 mmHg 86%
    07:00 +20°C° 0 mm 1 mps 733 mmHg 84%
    08:00 +21°C° 0 mm 1 mps 733 mmHg 77%
    09:00 +23°C° 0 mm 2 mps 733 mmHg 71%
    10:00 +24°C° 0 mm 2 mps 733 mmHg 65%
    11:00 +25°C° 0 mm 2 mps 732 mmHg 61%
    12:00 +26°C° 0 mm 1 mps 732 mmHg 57%
    13:00 +27°C° 0 mm 1 mps 732 mmHg 53%
    14:00 +27°C° 0 mm 1 mps 732 mmHg 53%
    15:00 +27°C° 0 mm 1 mps 732 mmHg 53%
    16:00 +27°C° 0 mm 1 mps 731 mmHg 54%
    17:00 +25°C° 0 mm 1 mps 731 mmHg 59%
    18:00 +24°C° 0 mm 1 mps 731 mmHg 64%
    19:00 +23°C° 0 mm 1 mps 731 mmHg 70%
    20:00 +22°C° 0.1 mm 1 mps 731 mmHg 70%
    21:00 +21°C° 0.1 mm 1 mps 732 mmHg 71%
    22:00 +20°C° 0.1 mm 1 mps 732 mmHg 72%
    23:00 +19°C° 0 mm 1 mps 732 mmHg 72%
    Show more